DCM6021 KMDW-KTEB

Flight info

Callsign DCM6021
Flight time 1h 21m
Altitude 47000
Route DCT LEWKE DCT GIJ DCT EVOTE DCT NELLS DCT KEEHO DCT JHW LVZ5
Aircraft C750/M-SBDE3FGHRWXY/S

Departure

Time 2026-05-08 00:33
Airport Chicago Midway International Airport (KMDW)

Arrival

Time 2026-05-08 01:55
Airport Teterboro Airport (KTEB)
Time Latitude Longitude Altitude Speed Heading
2026-05-08 00:21 41.78671 -87.76095 626 ft 0 kts 85°
2026-05-08 00:24 41.78671 -87.76096 626 ft 0 kts 85°
2026-05-08 00:31 41.78671 -87.76089 626 ft 4 kts 86°
2026-05-08 00:31 41.78689 -87.76042 634 ft 9 kts 78°
2026-05-08 00:31 41.78617 -87.76008 631 ft 20 kts 178°
2026-05-08 00:31 41.78442 -87.76001 625 ft 20 kts 178°
2026-05-08 00:32 41.78362 -87.75998 625 ft 0 kts 178°
2026-05-08 00:32 41.78358 -87.75998 632 ft 4 kts 178°
2026-05-08 00:32 41.78283 -87.75996 625 ft 16 kts 182°
2026-05-08 00:32 41.78275 -87.75945 625 ft 12 kts 43°
2026-05-08 00:33 41.78558 -87.75587 625 ft 112 kts 43°
2026-05-08 00:33 41.79237 -87.74738 1099 ft 132 kts 45°
2026-05-08 00:33 41.79801 -87.73697 1709 ft 156 kts 71°
2026-05-08 00:33 41.79947 -87.72137 2147 ft 184 kts 95°
2026-05-08 00:34 41.79774 -87.70305 2691 ft 210 kts 98°
2026-05-08 00:34 41.79626 -87.68245 3312 ft 234 kts 95°
2026-05-08 00:34 41.79525 -87.65955 3936 ft 258 kts 94°
2026-05-08 00:34 41.79404 -87.63435 4572 ft 282 kts 94°
2026-05-08 00:35 41.79258 -87.60787 5561 ft 287 kts 94°
2026-05-08 00:35 41.79111 -87.58094 6575 ft 293 kts 93°
2026-05-08 00:35 41.78964 -87.55365 7528 ft 300 kts 93°
2026-05-08 00:35 41.78811 -87.52540 8570 ft 307 kts 93°
2026-05-08 00:36 41.78651 -87.49645 9525 ft 316 kts 92°
2026-05-08 00:36 41.78485 -87.46658 10262 ft 329 kts 92°
2026-05-08 00:36 41.78313 -87.43479 10517 ft 356 kts 92°
2026-05-08 00:36 41.78125 -87.40042 10664 ft 382 kts 93°
2026-05-08 00:37 41.77922 -87.36463 11404 ft 386 kts 93°
2026-05-08 00:37 41.77717 -87.32862 12155 ft 391 kts 93°
2026-05-08 00:37 41.77513 -87.29206 12874 ft 396 kts 93°
2026-05-08 00:38 41.77089 -87.21753 14253 ft 405 kts 94°
2026-05-08 00:38 41.76872 -87.17968 14918 ft 409 kts 93°
2026-05-08 00:38 41.76657 -87.14197 15554 ft 413 kts 93°
2026-05-08 00:38 41.76431 -87.10338 16218 ft 417 kts 93°
2026-05-08 00:39 41.76207 -87.06434 16880 ft 421 kts 92°
2026-05-08 00:39 41.76220 -87.02491 17511 ft 425 kts 86°
2026-05-08 00:39 41.76299 -86.98515 18215 ft 429 kts 86°
2026-05-08 00:39 41.76349 -86.94499 18836 ft 434 kts 87°
2026-05-08 00:40 41.76375 -86.90429 19405 ft 440 kts 87°
2026-05-08 00:40 41.76412 -86.86311 20013 ft 445 kts 86°
2026-05-08 00:40 41.76466 -86.82144 20614 ft 450 kts 86°
2026-05-08 00:40 41.76513 -86.77931 21214 ft 455 kts 86°
2026-05-08 00:41 41.76548 -86.73663 21809 ft 460 kts 86°
2026-05-08 00:41 41.76584 -86.69353 22402 ft 465 kts 86°
2026-05-08 00:41 41.76625 -86.64997 22980 ft 470 kts 86°
2026-05-08 00:41 41.76665 -86.60589 23555 ft 476 kts 86°
2026-05-08 00:42 41.76699 -86.56185 24058 ft 481 kts 86°
2026-05-08 00:42 41.76731 -86.51672 24504 ft 487 kts 86°
2026-05-08 00:42 41.76765 -86.47110 24963 ft 492 kts 86°
2026-05-08 00:42 41.76798 -86.42506 25424 ft 497 kts 86°
2026-05-08 00:43 41.76828 -86.37844 25884 ft 503 kts 86°
2026-05-08 00:43 41.76901 -86.33136 26301 ft 506 kts 83°
2026-05-08 00:43 41.77440 -86.28475 26757 ft 505 kts 72°
2026-05-08 00:43 41.78243 -86.23873 27216 ft 510 kts 71°
2026-05-08 00:44 41.79035 -86.19289 27681 ft 515 kts 72°
2026-05-08 00:44 41.79835 -86.14571 28142 ft 521 kts 72°
2026-05-08 00:44 41.80643 -86.09813 28596 ft 527 kts 72°
2026-05-08 00:44 41.81467 -86.05005 29054 ft 532 kts 72°
2026-05-08 00:45 41.82299 -86.00141 29493 ft 537 kts 72°
2026-05-08 00:45 41.83129 -85.95229 29937 ft 543 kts 72°
2026-05-08 00:45 41.83966 -85.90259 30320 ft 547 kts 72°
2026-05-08 00:45 41.84810 -85.85258 30729 ft 551 kts 72°
2026-05-08 00:46 41.85655 -85.80238 31196 ft 552 kts 72°
2026-05-08 00:46 41.86495 -85.75217 31802 ft 551 kts 72°
2026-05-08 00:46 41.87331 -85.70203 32357 ft 551 kts 72°
2026-05-08 00:46 41.88170 -85.65180 32911 ft 551 kts 72°
2026-05-08 00:47 41.88995 -85.60223 33477 ft 551 kts 72°
2026-05-08 00:47 41.89827 -85.55199 34035 ft 551 kts 72°
2026-05-08 00:47 41.90656 -85.50174 34644 ft 549 kts 73°
2026-05-08 00:47 41.91480 -85.45171 35256 ft 546 kts 73°
2026-05-08 00:48 41.92299 -85.40194 35802 ft 545 kts 73°
2026-05-08 00:48 41.93114 -85.35221 36340 ft 544 kts 73°
2026-05-08 00:48 41.93925 -85.30252 36866 ft 543 kts 74°
2026-05-08 00:48 41.94719 -85.25289 37398 ft 543 kts 76°
2026-05-08 00:49 41.95171 -85.20222 37905 ft 547 kts 85°
2026-05-08 00:49 41.95191 -85.15117 38490 ft 546 kts 90°
2026-05-08 00:49 41.95046 -85.10087 38971 ft 544 kts 91°
2026-05-08 00:49 41.94977 -85.05004 39429 ft 543 kts 89°
2026-05-08 00:50 41.95042 -84.99947 39927 ft 540 kts 88°
2026-05-08 00:50 41.95075 -84.94895 40413 ft 539 kts 89°
2026-05-08 00:50 41.95004 -84.89865 40887 ft 538 kts 91°
2026-05-08 00:50 41.94934 -84.84846 41364 ft 536 kts 90°
2026-05-08 00:51 41.94933 -84.79843 41847 ft 535 kts 89°
2026-05-08 00:51 41.94940 -84.74845 42320 ft 534 kts 90°
2026-05-08 00:51 41.94899 -84.69929 42779 ft 533 kts 90°
2026-05-08 00:51 41.94840 -84.64957 43231 ft 532 kts 90°
2026-05-08 00:52 41.94808 -84.59986 43598 ft 533 kts 90°
2026-05-08 00:52 41.94789 -84.55004 44019 ft 533 kts 90°
2026-05-08 00:52 41.94752 -84.50030 44459 ft 532 kts 91°
2026-05-08 00:52 41.94698 -84.45052 44863 ft 532 kts 91°
2026-05-08 00:53 41.94652 -84.40085 45219 ft 532 kts 91°
2026-05-08 00:53 41.94614 -84.35115 45582 ft 531 kts 90°
2026-05-08 00:53 41.94569 -84.30154 45904 ft 531 kts 91°
2026-05-08 00:53 41.94515 -84.25179 46166 ft 533 kts 91°
2026-05-08 00:54 41.94463 -84.20184 46339 ft 536 kts 91°
2026-05-08 00:54 41.94409 -84.15180 46639 ft 535 kts 91°
2026-05-08 00:54 41.94350 -84.10186 46929 ft 533 kts 91°
2026-05-08 00:55 41.94231 -84.00131 46962 ft 545 kts 91°
2026-05-08 00:55 41.94098 -83.89839 46974 ft 556 kts 91°
2026-05-08 00:56 41.93955 -83.79413 46973 ft 567 kts 91°
2026-05-08 00:56 41.93798 -83.68729 46969 ft 576 kts 91°
2026-05-08 00:57 41.93629 -83.57890 46966 ft 583 kts 91°
2026-05-08 00:57 41.93494 -83.46930 46958 ft 589 kts 89°
2026-05-08 00:58 41.93440 -83.35894 46950 ft 593 kts 90°
2026-05-08 00:58 41.93386 -83.24777 46955 ft 596 kts 90°
2026-05-08 00:59 41.93327 -83.13688 46958 ft 598 kts 90°
2026-05-08 00:59 41.93243 -83.02491 46960 ft 600 kts 90°
2026-05-08 01:00 41.93164 -82.91281 46956 ft 601 kts 90°
2026-05-08 01:00 41.93059 -82.80049 46960 ft 602 kts 90°
2026-05-08 01:01 41.92956 -82.68804 46957 ft 602 kts 90°
2026-05-08 01:01 41.92831 -82.57541 46958 ft 603 kts 90°
2026-05-08 01:02 41.92703 -82.46268 46962 ft 604 kts 90°
2026-05-08 01:02 41.92558 -82.35060 46963 ft 604 kts 91°
2026-05-08 01:03 41.92407 -82.23774 46964 ft 604 kts 91°
2026-05-08 01:03 41.92241 -82.12490 46964 ft 604 kts 91°
2026-05-08 01:04 41.92066 -82.01188 46998 ft 604 kts 91°
2026-05-08 01:04 41.91878 -81.89922 46963 ft 603 kts 91°
2026-05-08 01:05 41.92159 -81.78685 46956 ft 601 kts 81°
2026-05-08 01:05 41.93545 -81.67632 46970 ft 600 kts 79°
2026-05-08 01:06 41.94678 -81.56533 46969 ft 600 kts 81°
2026-05-08 01:06 41.95926 -81.45536 46972 ft 599 kts 79°
2026-05-08 01:07 41.97114 -81.34430 46970 ft 599 kts 81°
2026-05-08 01:07 41.98300 -81.23351 46954 ft 598 kts 80°
2026-05-08 01:08 41.99490 -81.12276 46958 ft 598 kts 81°
2026-05-08 01:08 42.00642 -81.01194 46958 ft 598 kts 80°
2026-05-08 01:09 42.01812 -80.90123 46939 ft 598 kts 81°
2026-05-08 01:09 42.02936 -80.79119 46961 ft 597 kts 81°
2026-05-08 01:10 42.04077 -80.68072 46959 ft 594 kts 81°
2026-05-08 01:10 42.05185 -80.57061 46958 ft 594 kts 81°
2026-05-08 01:11 42.06295 -80.46061 46968 ft 591 kts 81°
2026-05-08 01:11 42.07380 -80.35097 46973 ft 591 kts 81°
2026-05-08 01:12 42.08462 -80.24130 46971 ft 591 kts 81°
2026-05-08 01:12 42.09521 -80.13235 46965 ft 589 kts 82°
2026-05-08 01:13 42.10577 -80.02298 46965 ft 589 kts 82°
2026-05-08 01:13 42.11620 -79.91362 46960 ft 589 kts 82°
2026-05-08 01:14 42.12654 -79.80417 46964 ft 589 kts 82°
2026-05-08 01:14 42.13677 -79.69478 46968 ft 588 kts 83°
2026-05-08 01:15 42.14519 -79.60379 46983 ft 589 kts 83°
2026-05-08 01:15 42.15524 -79.49424 46959 ft 589 kts 83°
2026-05-08 01:16 42.16517 -79.38467 46952 ft 589 kts 83°
2026-05-08 01:16 42.17502 -79.27493 46948 ft 589 kts 83°
2026-05-08 01:17 42.18477 -79.16509 46950 ft 589 kts 84°
2026-05-08 01:17 42.19435 -79.05586 46940 ft 589 kts 84°
2026-05-08 01:18 42.20390 -78.94592 46935 ft 590 kts 84°
2026-05-08 01:18 42.21335 -78.83575 46936 ft 591 kts 84°
2026-05-08 01:19 42.22271 -78.72537 46920 ft 592 kts 84°
2026-05-08 01:19 42.23183 -78.61545 46904 ft 593 kts 85°
2026-05-08 01:20 42.23251 -78.50443 46891 ft 590 kts 98°
2026-05-08 01:20 42.21326 -78.39747 46894 ft 583 kts 114°
2026-05-08 01:21 42.18202 -78.29682 46938 ft 581 kts 117°
2026-05-08 01:21 42.14875 -78.19758 46932 ft 579 kts 121°
2026-05-08 01:22 42.10915 -78.10367 46929 ft 576 kts 126°
2026-05-08 01:22 42.06731 -78.01254 46932 ft 575 kts 127°
2026-05-08 01:23 42.02472 -77.92134 46929 ft 575 kts 127°
2026-05-08 01:23 41.98214 -77.83010 46923 ft 575 kts 128°
2026-05-08 01:24 41.93101 -77.74952 46927 ft 561 kts 143°
2026-05-08 01:24 41.87347 -77.67886 46938 ft 562 kts 143°
2026-05-08 01:25 41.81953 -77.60302 46943 ft 570 kts 136°
2026-05-08 01:25 41.77318 -77.51583 46888 ft 581 kts 125°
2026-05-08 01:25 41.75456 -77.46643 46107 ft 592 kts 117°
2026-05-08 01:26 41.74078 -77.41503 45359 ft 593 kts 111°
2026-05-08 01:26 41.72998 -77.36234 44591 ft 580 kts 108°
2026-05-08 01:26 41.72046 -77.31044 43803 ft 568 kts 107°
2026-05-08 01:26 41.71015 -77.25997 43056 ft 555 kts 111°
2026-05-08 01:27 41.69725 -77.21199 42317 ft 543 kts 116°
2026-05-08 01:27 41.68301 -77.16581 41608 ft 532 kts 118°
2026-05-08 01:27 41.66907 -77.12006 40940 ft 529 kts 116°
2026-05-08 01:27 41.65708 -77.07344 40245 ft 531 kts 112°
2026-05-08 01:28 41.64557 -77.02637 39553 ft 532 kts 114°
2026-05-08 01:28 41.63283 -76.97998 38849 ft 533 kts 116°
2026-05-08 01:28 41.61938 -76.93375 38079 ft 535 kts 116°
2026-05-08 01:28 41.60658 -76.88696 37374 ft 537 kts 115°
2026-05-08 01:29 41.59427 -76.83964 36658 ft 540 kts 115°
2026-05-08 01:29 41.58166 -76.79287 35958 ft 541 kts 116°
2026-05-08 01:29 41.56842 -76.74588 35252 ft 542 kts 116°
2026-05-08 01:29 41.55525 -76.69867 34539 ft 543 kts 116°
2026-05-08 01:30 41.54239 -76.65107 33817 ft 545 kts 115°
2026-05-08 01:30 41.52947 -76.60338 33046 ft 548 kts 116°
2026-05-08 01:30 41.51616 -76.55561 32326 ft 552 kts 117°
2026-05-08 01:30 41.50267 -76.50743 31595 ft 556 kts 117°
2026-05-08 01:31 41.48933 -76.45901 30866 ft 555 kts 117°
2026-05-08 01:31 41.47600 -76.41047 30123 ft 558 kts 117°
2026-05-08 01:31 41.46263 -76.36229 29335 ft 550 kts 118°
2026-05-08 01:31 41.44937 -76.31491 28614 ft 542 kts 118°
2026-05-08 01:32 41.43627 -76.26809 27901 ft 535 kts 118°
2026-05-08 01:32 41.42341 -76.22197 27208 ft 527 kts 118°
2026-05-08 01:32 41.41071 -76.17650 26510 ft 520 kts 118°
2026-05-08 01:32 41.39810 -76.13165 25792 ft 513 kts 118°
2026-05-08 01:33 41.38588 -76.08819 25169 ft 504 kts 118°
2026-05-08 01:33 41.37358 -76.04454 24506 ft 499 kts 118°
2026-05-08 01:33 41.36145 -76.00151 23853 ft 494 kts 118°
2026-05-08 01:33 41.34943 -75.95896 23160 ft 487 kts 118°
2026-05-08 01:34 41.33761 -75.91715 22512 ft 479 kts 118°
2026-05-08 01:34 41.32595 -75.87602 21895 ft 472 kts 118°
2026-05-08 01:34 41.31436 -75.83528 21271 ft 468 kts 118°
2026-05-08 01:34 41.30294 -75.79512 20665 ft 461 kts 118°
2026-05-08 01:35 41.29172 -75.75561 20056 ft 452 kts 118°
2026-05-08 01:35 41.28065 -75.71677 19467 ft 446 kts 118°
2026-05-08 01:35 41.26929 -75.67888 18875 ft 436 kts 121°
2026-05-08 01:35 41.25690 -75.64248 18311 ft 430 kts 121°
2026-05-08 01:36 41.24515 -75.60669 17715 ft 426 kts 120°
2026-05-08 01:36 41.23332 -75.57060 17199 ft 423 kts 120°
2026-05-08 01:36 41.22133 -75.53497 16712 ft 420 kts 120°
2026-05-08 01:36 41.20938 -75.49966 16160 ft 417 kts 120°
2026-05-08 01:37 41.19764 -75.46454 15609 ft 415 kts 119°
2026-05-08 01:37 41.18601 -75.42966 15066 ft 412 kts 119°
2026-05-08 01:37 41.17440 -75.39511 14525 ft 408 kts 118°
2026-05-08 01:37 41.16285 -75.36094 13992 ft 404 kts 118°
2026-05-08 01:38 41.15141 -75.32698 13437 ft 400 kts 117°
2026-05-08 01:38 41.14011 -75.29337 12898 ft 396 kts 117°
2026-05-08 01:38 41.12894 -75.26030 12380 ft 391 kts 117°
2026-05-08 01:38 41.11785 -75.22754 11864 ft 386 kts 117°
2026-05-08 01:39 41.10694 -75.19529 11358 ft 376 kts 117°
2026-05-08 01:39 41.09669 -75.16491 10874 ft 354 kts 117°
2026-05-08 01:39 41.08694 -75.13590 10426 ft 335 kts 116°
2026-05-08 01:39 41.07760 -75.10833 9988 ft 320 kts 117°
2026-05-08 01:40 41.06847 -75.08187 9560 ft 313 kts 117°
2026-05-08 01:40 41.05953 -75.05579 9131 ft 308 kts 116°
2026-05-08 01:40 41.05081 -75.03002 8725 ft 305 kts 116°
2026-05-08 01:40 41.04216 -75.00454 8334 ft 301 kts 116°
2026-05-08 01:41 41.03369 -74.97978 7941 ft 297 kts 116°
2026-05-08 01:41 41.02519 -74.95500 7550 ft 294 kts 116°
2026-05-08 01:41 41.01679 -74.93050 7163 ft 291 kts 116°
2026-05-08 01:41 41.00854 -74.90624 6782 ft 287 kts 116°
2026-05-08 01:42 40.99888 -74.88359 6340 ft 281 kts 134°
2026-05-08 01:42 40.98328 -74.86914 6003 ft 270 kts 155°
2026-05-08 01:42 40.96634 -74.85830 5734 ft 270 kts 157°
2026-05-08 01:42 40.94917 -74.84796 5446 ft 270 kts 158°
2026-05-08 01:43 40.93204 -74.83776 5140 ft 269 kts 158°
2026-05-08 01:43 40.91494 -74.82764 4848 ft 268 kts 158°
2026-05-08 01:43 40.89814 -74.81777 4562 ft 267 kts 158°
2026-05-08 01:43 40.88110 -74.80785 4270 ft 266 kts 158°
2026-05-08 01:44 40.86415 -74.79809 4003 ft 265 kts 158°
2026-05-08 01:44 40.84796 -74.78685 3941 ft 267 kts 141°
2026-05-08 01:44 40.83675 -74.76743 3762 ft 268 kts 120°
2026-05-08 01:44 40.82790 -74.74576 3580 ft 268 kts 117°
2026-05-08 01:45 40.81925 -74.72406 3398 ft 266 kts 117°
2026-05-08 01:45 40.81063 -74.70258 3345 ft 266 kts 117°
2026-05-08 01:45 40.80189 -74.68106 3283 ft 265 kts 118°
2026-05-08 01:45 40.79313 -74.65960 3209 ft 265 kts 117°
2026-05-08 01:46 40.78438 -74.63822 3145 ft 264 kts 118°
2026-05-08 01:46 40.77568 -74.61693 3051 ft 263 kts 117°
2026-05-08 01:46 40.76694 -74.59564 2997 ft 263 kts 118°
2026-05-08 01:46 40.75818 -74.57439 3000 ft 264 kts 118°
2026-05-08 01:47 40.74956 -74.55340 3001 ft 263 kts 117°
2026-05-08 01:47 40.74087 -74.53215 3000 ft 263 kts 117°
2026-05-08 01:47 40.73216 -74.51085 2993 ft 264 kts 117°
2026-05-08 01:48 40.71468 -74.46811 2992 ft 265 kts 118°
2026-05-08 01:48 40.70604 -74.44661 2854 ft 268 kts 118°
2026-05-08 01:48 40.69736 -74.42515 2568 ft 264 kts 118°
2026-05-08 01:48 40.68876 -74.40392 2292 ft 261 kts 117°
2026-05-08 01:49 40.68246 -74.38183 1922 ft 259 kts 95°
2026-05-08 01:49 40.68432 -74.35877 1987 ft 256 kts 78°
2026-05-08 01:49 40.68784 -74.33605 2028 ft 251 kts 77°
2026-05-08 01:49 40.69110 -74.31451 2020 ft 229 kts 77°
2026-05-08 01:50 40.69414 -74.29420 2014 ft 225 kts 77°
2026-05-08 01:50 40.69708 -74.27420 2001 ft 224 kts 77°
2026-05-08 01:50 40.70290 -74.25586 1902 ft 220 kts 39°
2026-05-08 01:50 40.71601 -74.24578 2115 ft 219 kts 28°
2026-05-08 01:51 40.72939 -74.23553 2116 ft 225 kts 30°
2026-05-08 01:51 40.74198 -74.22404 2145 ft 218 kts 50°
2026-05-08 01:51 40.75236 -74.20886 2163 ft 220 kts 46°
2026-05-08 01:51 40.76239 -74.19356 2116 ft 214 kts 48°
2026-05-08 01:52 40.77233 -74.17931 1993 ft 209 kts 45°
2026-05-08 01:52 40.78229 -74.16515 1925 ft 213 kts 46°
2026-05-08 01:52 40.79210 -74.15076 1640 ft 202 kts 46°
2026-05-08 01:52 40.80147 -74.13698 1356 ft 200 kts 47°
2026-05-08 01:53 40.81024 -74.12409 1103 ft 179 kts 46°
2026-05-08 01:53 40.81786 -74.11286 860 ft 148 kts 47°
2026-05-08 01:53 40.82407 -74.10364 666 ft 127 kts 47°
2026-05-08 01:53 40.82979 -74.09517 569 ft 121 kts 46°
2026-05-08 01:54 40.83543 -74.08688 467 ft 122 kts 46°
2026-05-08 01:54 40.84119 -74.07844 245 ft 122 kts 47°
2026-05-08 01:54 40.84677 -74.07025 36 ft 116 kts 47°
2026-05-08 01:54 40.85137 -74.06348 23 ft 72 kts 48°
2026-05-08 01:55 40.85261 -74.06109 12 ft 15 kts 127°
2026-05-08 01:55 40.85172 -74.06090 13 ft 12 kts 201°
2026-05-08 01:55 40.85090 -74.06200 14 ft 20 kts 228°
2026-05-08 01:55 40.85002 -74.06330 24 ft 18 kts 228°
2026-05-08 01:56 40.84918 -74.06455 24 ft 18 kts 231°
2026-05-08 01:56 40.84837 -74.06573 24 ft 17 kts 226°
2026-05-08 01:56 40.84755 -74.06695 21 ft 18 kts 225°
2026-05-08 01:56 40.84689 -74.06694 21 ft 12 kts 140°